Regional Weather Roundup
Issued by NWS

Home | Current Version | Previous Version | Graphics & Text | Print | Product List | Glossary On
Versions: 1 2 3 4 5 6 7 8 9 10 11 12 13 14 15 16 17 18 19 20 21 22 23 24 25 26 27 28 29 30 31 32 33 34 35 36 37 38 39 40 41 42 43 44 45 46 47 48 49 50
020
ASUS43 KFSD 240402
RWRSD

WEATHER ROUNDUP FOR SOUTH DAKOTA
NATIONAL WEATHER SERVICE SIOUX FALLS SD
1000 PM CST MON JAN 23 2017

NOTE: "FAIR" INDICATES FEW OR NO CLOUDS BELOW 12,000 FEET WITH NO
SIGNIFICANT WEATHER AND/OR OBSTRUCTIONS TO VISIBILITY.


SDZ001>005-009-010-012>017-240500-
NORTHWEST AND NORTH CENTRAL SOUTH DAKOTA

CITY           SKY/WX    TMP DP  RH WIND       PRES   REMARKS
BUFFALO          N/A     25  20  81 N5        29.69S WCI  19
FAITH            N/A     26  24  92 NE12      29.76S WCI  16
MOBRIDGE       LGT SNOW  28  24  85 NE8       29.78S FOG     WCI  20
$$

SDZ012>016-024>037-041>051-057-063-072>074-240500-
SOUTHWEST AND SOUTH CENTRAL SOUTH DAKOTA

CITY           SKY/WX    TMP DP  RH WIND       PRES   REMARKS
RAPID CTY ARPT FOG       23  21  92 N14       29.72S VSB 1/2 WCI  11
PIERRE         CLOUDY    29  26  89 E7        29.76S WCI  22
CUSTER         CLOUDY    24  18  77 NE9       29.58S WCI  14
PHILIP         CLOUDY    28  28 100 N8        29.75R FOG     WCI  20
PINE RIDGE     FOG       26  26 100 N13       29.66F VSB 1/2 WCI  15
SPEARFISH      FOG       19  19 100 CALM      29.71S VSB<1/4
WINNER         CLOUDY    33  29  85 SE10      29.72R WCI  25
$$

SDZ004>011-016>023-039-040-240500-
NORTHEAST SOUTH DAKOTA

CITY           SKY/WX    TMP DP  RH WIND       PRES   REMARKS
ABERDEEN       CLOUDY    29  25  85 N3        29.83R FOG
WATERTOWN      CLOUDY    28  26  92 E5        29.79S WCI  23
BROOKINGS      CLOUDY    30  27  88 SE8       29.80R WCI  22
SISSETON         N/A     31  29  92 SE5       29.82S WCI  26
$$

SDZ017-020-022-023-036>040-048>070-240500-
SOUTHEAST SOUTH DAKOTA

CITY           SKY/WX    TMP DP  RH WIND       PRES   REMARKS
SIOUX FALLS    CLOUDY    32  30  92 SE8       29.82S WCI  25
HURON          CLOUDY    31  29  92 SE7       29.80S WCI  24
CHAMBERLAIN    CLOUDY    32  31  94 E6        29.76S WCI  26
MITCHELL       CLOUDY    32  29  88 SE12      29.81R WCI  23
YANKTON        CLOUDY    30  27  86 E8        29.80F WCI  23
$$

ABBREVIATIONS USED IN REMARKS
   TC - TEMPERATURE IN CELSIUS
  WCI - WIND CHILL INDEX
   HX - HEAT INDEX
  VSB - VISIBILITY





USA.gov is the U.S. government's official web portal to all federal, state and local government web resources and services.